Radiation Dose at Monitoring Post of Fukushima Daini Nuclear Power Station
Date,Time,MP-1(microSv/h),MP-2(microSv/h),MP-3(microSv/h),MP-4(microSv/h),MP-5(microSv/h),MP-6(microSv/h),MP-7(microSv/h),Wind Direction,Wind Velocity(m/s),Rain
2019/11/21,00:00,0.186,0.168,0.287,0.267,0.265,0.147,0.089,northwest,3.7,No
2019/11/21,00:10,0.187,0.167,0.286,0.267,0.264,0.146,0.089,northwest,3.1,No
2019/11/21,00:20,0.188,0.169,0.287,0.268,0.265,0.147,0.090,west-northwest,2.5,No
2019/11/21,00:30,0.188,0.169,0.286,0.267,0.265,0.145,0.089,west-northwest,2.2,No
2019/11/21,00:40,0.186,0.168,0.286,0.267,0.265,0.146,0.089,west-southwest,3.2,No
2019/11/21,00:50,0.186,0.168,0.286,0.268,0.265,0.146,0.088,west-southwest,1.9,No
2019/11/21,01:00,0.186,0.168,0.285,0.266,0.264,0.146,0.089,south-southwest,0.9,No
2019/11/21,01:10,0.187,0.168,0.287,0.268,0.265,0.146,0.089,south-southwest,1.4,No
2019/11/21,01:20,0.186,0.167,0.285,0.266,0.265,0.146,0.090,southwest,1.9,No
2019/11/21,01:30,0.187,0.168,0.285,0.266,0.264,0.146,0.090,west-southwest,2.4,No
2019/11/21,01:40,0.187,0.168,0.286,0.266,0.265,0.147,0.089,southwest,3.2,No
2019/11/21,01:50,0.186,0.166,0.286,0.267,0.264,0.146,0.089,southwest,4.3,No
2019/11/21,02:00,0.187,0.168,0.287,0.268,0.266,0.146,0.089,west-southwest,4.3,No
2019/11/21,02:10,0.186,0.168,0.286,0.266,0.265,0.146,0.090,west-southwest,2.8,No
2019/11/21,02:20,0.186,0.168,0.285,0.266,0.264,0.145,0.089,west,2.3,No
2019/11/21,02:30,0.187,0.167,0.287,0.267,0.263,0.146,0.089,west,1.5,No
2019/11/21,02:40,0.188,0.168,0.286,0.268,0.264,0.146,0.089,northwest,0.6,No
2019/11/21,02:50,0.187,0.168,0.288,0.267,0.266,0.147,0.089,west-northwest,0.9,No
2019/11/21,03:00,0.187,0.167,0.286,0.266,0.265,0.146,0.090,northwest,1.0,No
2019/11/21,03:10,0.187,0.168,0.287,0.266,0.265,0.146,0.089,north,1.3,No
2019/11/21,03:20,0.186,0.168,0.286,0.267,0.265,0.147,0.090,north-northwest,2.5,No
2019/11/21,03:30,0.186,0.168,0.287,0.266,0.265,0.146,0.089,northwest,1.8,No
2019/11/21,03:40,0.187,0.167,0.287,0.267,0.266,0.146,0.090,north-northeast,1.0,No
2019/11/21,03:50,0.186,0.167,0.287,0.267,0.264,0.146,0.090,northwest,1.3,No
2019/11/21,04:00,0.187,0.167,0.286,0.266,0.265,0.146,0.089,west,1.1,No
2019/11/21,04:10,0.187,0.167,0.286,0.267,0.263,0.146,0.089,northwest,0.7,No
2019/11/21,04:20,0.187,0.167,0.287,0.268,0.265,0.146,0.089,-,CALM,No
2019/11/21,04:30,0.187,0.167,0.287,0.267,0.264,0.146,0.089,southwest,0.7,No
2019/11/21,04:40,0.188,0.169,0.287,0.267,0.264,0.145,0.090,southwest,0.6,No
2019/11/21,04:50,0.186,0.168,0.287,0.267,0.265,0.145,0.090,-,CALM,No
2019/11/21,05:00,0.187,0.167,0.286,0.267,0.264,0.145,0.089,-,CALM,No
2019/11/21,05:10,0.186,0.168,0.285,0.267,0.266,0.146,0.089,-,CALM,No
2019/11/21,05:20,0.186,0.168,0.286,0.267,0.265,0.146,0.089,-,CALM,No
2019/11/21,05:30,0.187,0.167,0.285,0.267,0.264,0.147,0.090,-,CALM,No
2019/11/21,05:40,0.188,0.168,0.286,0.268,0.264,0.147,0.089,-,CALM,No
2019/11/21,05:50,0.187,0.168,0.286,0.267,0.264,0.146,0.089,north-northwest,1.2,No
2019/11/21,06:00,0.187,0.168,0.286,0.266,0.264,0.146,0.089,west-northwest,3.0,No
2019/11/21,06:10,0.186,0.168,0.286,0.267,0.264,0.146,0.090,west-northwest,3.2,No
2019/11/21,06:20,0.187,0.167,0.286,0.268,0.264,0.147,0.089,west-northwest,3.4,No
2019/11/21,06:30,0.187,0.168,0.285,0.266,0.264,0.146,0.089,west-northwest,5.1,No
2019/11/21,06:40,0.185,0.168,0.287,0.267,0.264,0.146,0.089,west,5.1,No
2019/11/21,06:50,0.186,0.167,0.287,0.268,0.264,0.146,0.088,west-northwest,5.3,No
2019/11/21,07:00,0.187,0.167,0.287,0.266,0.264,0.146,0.090,west-northwest,5.0,No
2019/11/21,07:10,0.186,0.168,0.286,0.266,0.264,0.145,0.089,west-northwest,3.6,No
2019/11/21,07:20,0.186,0.167,0.287,0.267,0.263,0.145,0.089,west-northwest,2.6,No
2019/11/21,07:30,0.186,0.167,0.286,0.266,0.264,0.146,0.089,west,1.8,No
2019/11/21,07:40,0.188,0.168,0.285,0.266,0.264,0.146,0.090,west,2.2,No
2019/11/21,07:50,0.186,0.168,0.287,0.266,0.264,0.146,0.089,west,0.7,No
2019/11/21,08:00,0.187,0.168,0.286,0.267,0.263,0.147,0.089,west,1.0,No
2019/11/21,08:10,0.186,0.169,0.285,0.267,0.265,0.146,0.088,-,CALM,No
2019/11/21,08:20,0.187,0.168,0.286,0.265,0.265,0.146,0.088,-,CALM,No
2019/11/21,08:30,0.186,0.168,0.286,0.266,0.264,0.146,0.089,west,0.7,No
2019/11/21,08:40,0.186,0.168,0.286,0.266,0.264,0.145,0.089,south-southeast,0.9,No
2019/11/21,08:50,0.186,0.168,0.285,0.264,0.264,0.146,0.089,west-southwest,0.6,No
2019/11/21,09:00,0.187,0.169,0.285,0.266,0.266,0.146,0.089,east-southeast,1.9,No
2019/11/21,09:10,0.186,0.167,0.286,0.265,0.264,0.145,0.089,east-southeast,1.3,No
2019/11/21,09:20,0.186,0.166,0.283,0.266,0.265,0.146,0.089,southeast,1.7,No
2019/11/21,09:30,0.186,0.168,0.286,0.265,0.265,0.146,0.089,east-southeast,2.9,No
2019/11/21,09:40,0.186,0.167,0.286,0.266,0.264,0.145,0.089,east-southeast,4.4,No
2019/11/21,09:50,0.185,0.167,0.285,0.266,0.265,0.146,0.089,east-southeast,4.1,No
2019/11/21,10:00,0.185,0.167,0.286,0.267,0.264,0.147,0.089,east-southeast,4.0,No
2019/11/21,10:10,0.186,0.166,0.287,0.267,0.265,0.146,0.089,southeast,3.4,No
2019/11/21,10:20,0.185,0.167,0.285,0.268,0.263,0.147,0.089,east-southeast,4.1,No
2019/11/21,10:30,0.186,0.166,0.286,0.266,0.265,0.146,0.089,east-southeast,3.6,No
2019/11/21,10:40,0.185,0.167,0.286,0.266,0.263,0.146,0.089,east,2.6,No
2019/11/21,10:50,0.186,0.167,0.285,0.266,0.265,0.146,0.089,east,2.7,No
2019/11/21,11:00,0.185,0.166,0.286,0.266,0.262,0.145,0.089,east-northeast,2.8,No
2019/11/21,11:10,0.185,0.168,0.286,0.265,0.265,0.146,0.089,east,1.8,No
2019/11/21,11:20,0.186,0.167,0.284,0.267,0.264,0.145,0.089,east,2.6,No
2019/11/21,11:30,0.185,0.168,0.286,0.265,0.264,0.146,0.089,east,2.3,No
2019/11/21,11:40,0.185,0.167,0.284,0.267,0.264,0.145,0.089,east-northeast,2.4,No
2019/11/21,11:50,0.185,0.167,0.287,0.266,0.266,0.146,0.089,northeast,3.2,No
2019/11/21,12:00,0.186,0.167,0.285,0.268,0.265,0.147,0.089,east-northeast,2.5,No
2019/11/21,12:10,0.186,0.167,0.284,0.266,0.266,0.145,0.089,east-northeast,2.8,No
2019/11/21,12:20,0.187,0.167,0.287,0.267,0.264,0.146,0.088,east-northeast,2.9,No
2019/11/21,12:30,0.185,0.167,0.286,0.266,0.266,0.147,0.089,northeast,3.1,No
2019/11/21,12:40,0.187,0.167,0.286,0.267,0.263,0.146,0.089,east-northeast,4.1,No
2019/11/21,12:50,0.185,0.165,0.284,0.265,0.264,0.146,0.089,east,4.5,No
2019/11/21,13:00,0.187,0.168,0.284,0.268,0.264,0.146,0.089,east,5.4,No
2019/11/21,13:10,0.186,0.167,0.287,0.265,0.266,0.146,0.090,east,2.1,No
2019/11/21,13:20,0.187,0.168,0.284,0.266,0.265,0.146,0.089,northeast,3.6,No
2019/11/21,13:30,0.186,0.168,0.284,0.268,0.267,0.145,0.089,east-northeast,3.9,No
2019/11/21,13:40,0.187,0.168,0.284,0.267,0.265,0.146,0.089,east,3.7,No
2019/11/21,13:50,0.185,0.168,-,0.267,0.264,0.146,0.089,east,2.9,No
2019/11/21,14:00,0.186,0.169,-,0.266,0.265,0.145,0.089,east,2.7,No
2019/11/21,14:10,0.186,0.167,-,0.268,0.263,0.146,0.090,east-northeast,2.3,No
2019/11/21,14:20,0.186,0.167,-,0.267,0.265,0.146,0.089,east,2.7,No
2019/11/21,14:30,0.187,0.167,-,0.269,0.264,0.147,0.089,north-northeast,2.1,No
2019/11/21,14:40,0.186,0.168,-,0.265,0.265,0.146,0.089,east,0.8,No
2019/11/21,14:50,0.185,0.168,-,0.267,0.264,0.146,0.088,southeast,1.2,No
2019/11/21,15:00,0.186,0.168,0.284,0.268,0.265,0.145,0.089,east-southeast,1.6,No
2019/11/21,15:10,0.186,0.168,0.285,0.265,0.265,0.145,0.088,south-southeast,1.0,No
2019/11/21,15:20,0.188,0.167,0.286,0.268,0.265,0.146,0.089,southeast,1.0,No
2019/11/21,15:30,0.186,0.169,0.285,0.268,0.265,0.146,0.089,east,1.1,No
2019/11/21,15:40,0.186,0.167,0.287,0.266,0.263,0.146,0.089,north,1.4,No
2019/11/21,15:50,0.188,0.168,0.285,0.268,0.267,0.146,0.089,northwest,1.2,No
2019/11/21,16:00,0.186,0.168,0.285,0.267,0.265,0.146,0.089,north,0.9,No
2019/11/21,16:10,0.187,0.168,0.286,0.267,0.264,0.146,0.088,north,1.4,No
2019/11/21,16:20,0.187,0.168,0.285,0.266,0.265,0.146,0.089,north-northwest,2.8,No
2019/11/21,16:30,0.186,0.168,0.286,0.267,0.264,0.147,0.089,north-northwest,3.2,No
2019/11/21,16:40,0.187,0.168,0.286,0.267,0.265,0.147,0.089,northwest,3.6,No
2019/11/21,16:50,0.187,0.168,0.285,0.267,0.267,0.146,0.088,northwest,4.4,No
2019/11/21,17:00,0.187,0.168,0.285,0.266,0.264,0.146,0.090,northwest,4.5,No
2019/11/21,17:10,0.188,0.168,0.286,0.269,0.265,0.146,0.089,northwest,4.1,No
2019/11/21,17:20,0.186,0.168,0.285,0.268,0.264,0.146,0.090,west-northwest,4.1,No
2019/11/21,17:30,0.188,0.167,0.287,0.267,0.265,0.146,0.089,west-northwest,5.5,No
2019/11/21,17:40,0.187,0.168,0.286,0.267,0.265,0.146,0.089,west-northwest,5.7,No
2019/11/21,17:50,0.187,0.167,0.285,0.267,0.265,0.146,0.089,west-northwest,5.9,No
2019/11/21,18:00,0.186,0.168,0.285,0.267,0.265,0.146,0.089,west-northwest,6.1,No
2019/11/21,18:10,0.187,0.168,0.285,0.268,0.265,0.146,0.089,west-northwest,6.8,No
2019/11/21,18:20,0.187,0.167,0.287,0.268,0.263,0.147,0.089,west-northwest,6.4,No
2019/11/21,18:30,0.187,0.167,0.285,0.269,0.264,0.146,0.089,west-northwest,6.6,No
2019/11/21,18:40,0.187,0.168,0.285,0.267,0.265,0.146,0.089,west-northwest,6.3,No
2019/11/21,18:50,0.186,0.168,0.286,0.269,0.264,0.145,0.089,west-northwest,6.1,No
2019/11/21,19:00,0.187,0.168,0.286,0.268,0.264,0.146,0.089,west-northwest,5.9,No
2019/11/21,19:10,0.186,0.168,0.286,0.267,0.264,0.146,0.089,west-northwest,5.9,No
2019/11/21,19:20,0.187,0.167,0.285,0.268,0.265,0.147,0.089,west-northwest,5.4,No
2019/11/21,19:30,0.186,0.168,0.286,0.268,0.264,0.146,0.089,west-northwest,6.1,No
2019/11/21,19:40,0.187,0.168,0.287,0.268,0.266,0.146,0.089,west-northwest,7.4,No
2019/11/21,19:50,0.186,0.168,0.286,0.267,0.264,0.146,0.089,west-northwest,6.8,No
2019/11/21,20:00,0.186,0.166,0.286,0.268,0.264,0.145,0.089,west-northwest,6.3,No
2019/11/21,20:10,0.186,0.168,0.286,0.268,0.265,0.145,0.090,west,7.3,No
2019/11/21,20:20,0.187,0.167,0.286,0.267,0.264,0.146,0.089,west-northwest,7.6,No
2019/11/21,20:30,0.186,0.168,0.286,0.266,0.265,0.146,0.088,west-northwest,7.4,No
2019/11/21,20:40,0.187,0.167,0.287,0.267,0.265,0.145,0.088,west-northwest,7.7,No
2019/11/21,20:50,0.186,0.168,0.287,0.268,0.264,0.145,0.089,west-northwest,6.8,No
2019/11/21,21:00,0.186,0.168,0.286,0.268,0.264,0.146,0.088,west-northwest,4.4,No
2019/11/21,21:10,0.186,0.167,0.286,0.267,0.265,0.146,0.089,west-northwest,4.7,No
2019/11/21,21:20,0.186,0.167,0.286,0.267,0.264,0.145,0.089,west-northwest,3.9,No
2019/11/21,21:30,0.186,0.169,0.287,0.268,0.264,0.146,0.089,northwest,2.5,No
2019/11/21,21:40,0.186,0.168,0.285,0.268,0.264,0.146,0.089,northwest,2.1,No
2019/11/21,21:50,0.186,0.167,0.286,0.267,0.263,0.146,0.089,east,1.6,No
2019/11/21,22:00,0.187,0.167,0.286,0.268,0.265,0.146,0.089,-,CALM,No
2019/11/21,22:10,0.186,0.168,0.286,0.268,0.264,0.146,0.089,west-northwest,1.6,No
2019/11/21,22:20,0.187,0.168,0.285,0.267,0.265,0.145,0.089,-,CALM,No
2019/11/21,22:30,0.186,0.167,0.286,0.266,0.265,0.145,0.089,-,CALM,No
2019/11/21,22:40,0.186,0.167,0.287,0.268,0.265,0.145,0.089,northwest,1.3,No
2019/11/21,22:50,0.188,0.168,0.286,0.266,0.264,0.146,0.090,-,CALM,No
2019/11/21,23:00,0.187,0.167,0.286,0.267,0.264,0.145,0.089,northwest,1.3,No
2019/11/21,23:10,0.188,0.168,0.287,0.267,0.264,0.146,0.089,-,CALM,No
2019/11/21,23:20,0.186,0.168,0.286,0.267,0.265,0.146,0.089,-,CALM,No
2019/11/21,23:30,0.186,0.167,0.286,0.268,0.266,0.146,0.089,-,CALM,No
2019/11/21,23:40,0.186,0.169,0.287,0.267,0.265,0.146,0.089,southwest,0.7,No
2019/11/21,23:50,0.185,0.167,0.286,0.267,0.264,0.146,0.089,-,CALM,No
